Carbondale, IL

6:08 PM CDT on August 21, 2019 (GMT -0500)
Southern Illinois

Weather History for KMDH - July, 2019

Change the Weather History Date:

Monday, July 22, 2019

  Actual Average Record
Temperature  
Mean Temperature 74 °F -  
Max Temperature 79 °F 89 °F 105 °F (1934)
Min Temperature 68 °F 66 °F 44 °F (1947)
Cooling Degree Days 9    
Growing Degree Days 24 (Base 50)    
Moisture  
Dew Point 70 °F    
Average Humidity 87    
Maximum Humidity 97    
Minimum Humidity 58    
Precipitation  
Precipitation 0.06 in - - ()
Sea Level Pressure  
Sea Level Pressure 29.96 in    
Wind  
Wind Speed 5 mph (NNE)    
Max Wind Speed 10 mph    
Max Gust Speed 20 mph    
Visibility 10 miles    
Events Rain    
Averages and records for this station are not official NWS values.
T = Trace of Precipitation, MM = Missing Value Source: NWS Daily Summary

Daily Weather History Graph

Daily Weather History Graph

Search for Another Location

Airport or City:

Astronomy

Jul. 22, 2019 Rise Set
Actual Time 5:52 AM CDT 8:14 PM CDT
Civil Twilight 5:22 AM CDT 8:44 PM CDT
Nautical Twilight 4:45 AM CDT 9:21 PM CDT
Astronomical Twilight 4:04 AM CDT 10:01 PM CDT
Moon 11:40 PM CDT (7/22) 11:03 AM CDT (7/22)
Length of Visible Light 15h 21m
Length of Day
14h 22m
Waning Gibbous, 72% of the Moon is Illuminated
Jul 22
Waning Gibbous
Jul 24
Last Quarter
Jul 31
New
Aug 7
First Quarter
Aug 15
Full

Hourly Weather History & Observations

Time (CDT) Temp. Dew Point Humidity Pressure Visibility Wind Dir Wind Speed Gust Speed Precip Events Conditions
12:52 AM 73.9 °F 73.0 °F 97% 29.91 in 10.0 mi Calm Calm - N/A   Clear
1:52 AM 73.9 °F 73.0 °F 97% 29.89 in 10.0 mi SSE 4.6 mph - N/A   Clear
2:52 AM 73.9 °F 73.0 °F 97% 29.89 in 10.0 mi Calm Calm - N/A   Scattered Clouds
3:52 AM 73.9 °F 72.0 °F 93% 29.87 in 10.0 mi SW 3.5 mph - N/A   Clear
4:52 AM 73.9 °F 73.0 °F 97% 29.87 in 10.0 mi Calm Calm - N/A   Clear
5:52 AM 73.9 °F 73.0 °F 97% 29.90 in 10.0 mi Calm Calm - N/A   Mostly Cloudy
6:52 AM 73.9 °F 73.0 °F 97% 29.92 in 8.0 mi NNE 3.5 mph - N/A   Mostly Cloudy
7:02 AM 73.9 °F 73.0 °F 97% 29.93 in 8.0 mi North 3.5 mph - N/A   Mostly Cloudy
7:35 AM 75.0 °F 73.0 °F 94% 29.93 in 10.0 mi North 8.1 mph - N/A   Overcast
7:49 AM 75.2 °F 73.4 °F 94% 29.93 in 10.0 mi NNE 6.9 mph - N/A   Overcast
7:52 AM 75.9 °F 73.0 °F 91% 29.92 in 10.0 mi NE 6.9 mph - N/A   Overcast
8:32 AM 75.0 °F 72.0 °F 90% 29.95 in 10.0 mi North 6.9 mph - 0.01 in   Overcast
8:52 AM 75.0 °F 72.0 °F 90% 29.94 in 8.0 mi North 5.8 mph - 0.01 in Rain Light Rain
9:26 AM 75.0 °F 72.0 °F 90% 29.95 in 10.0 mi NNW 3.5 mph - 0.01 in Rain Light Rain
9:52 AM 75.0 °F 72.0 °F 90% 29.94 in 10.0 mi NNE 9.2 mph - 0.01 in Rain Light Rain
10:01 AM 73.9 °F 71.1 °F 91% 29.95 in 10.0 mi NE 10.4 mph - 0.00 in Rain Light Rain
10:27 AM 73.9 °F 71.1 °F 91% 29.95 in 8.0 mi NNE 6.9 mph - 0.00 in Rain Light Rain
10:45 AM 73.9 °F 71.1 °F 91% 29.96 in 7.0 mi NNE 5.8 mph - 0.01 in Rain Light Rain
10:52 AM 73.9 °F 71.1 °F 91% 29.95 in 8.0 mi NNE 5.8 mph - 0.02 in Rain Light Rain
11:01 AM 75.0 °F 72.0 °F 90% 29.96 in 8.0 mi NNE 4.6 mph - 0.00 in Rain Light Rain
11:10 AM 75.0 °F 71.1 °F 87% 29.96 in 10.0 mi NNE 6.9 mph - 0.00 in Rain Light Rain
11:25 AM 73.9 °F 70.0 °F 87% 29.97 in 10.0 mi NNE 10.4 mph 18.4 mph 0.00 in Rain Light Rain
11:48 AM 71.6 °F 69.8 °F 94% 29.97 in 10.0 mi NE 10.4 mph 19.6 mph 0.00 in Rain Light Rain
11:52 AM 72.0 °F 69.1 °F 91% 29.96 in 10.0 mi NNE 10.4 mph - 0.00 in Rain Light Rain
12:52 PM 72.0 °F 69.1 °F 91% 29.99 in 10.0 mi North 5.8 mph - 0.02 in Rain Light Rain
12:59 PM 72.0 °F 69.1 °F 91% 29.99 in 10.0 mi North 8.1 mph - 0.00 in   Overcast
1:52 PM 72.0 °F 66.9 °F 84% 29.99 in 10.0 mi North 10.4 mph - 0.00 in   Overcast
2:52 PM 75.0 °F 68.0 °F 79% 29.99 in 10.0 mi North 10.4 mph 19.6 mph N/A   Overcast
3:52 PM 75.0 °F 66.0 °F 73% 29.98 in 10.0 mi North 9.2 mph - N/A   Overcast
4:52 PM 78.1 °F 62.1 °F 58% 29.99 in 10.0 mi NNE 9.2 mph 19.6 mph N/A   Scattered Clouds
5:52 PM 79.0 °F 64.9 °F 62% 29.98 in 10.0 mi North 9.2 mph - N/A   Clear
6:52 PM 78.1 °F 63.0 °F 60% 29.99 in 10.0 mi North 9.2 mph - N/A   Clear
7:52 PM 75.0 °F 64.0 °F 69% 29.99 in 10.0 mi North 3.5 mph - N/A   Clear
8:52 PM 72.0 °F 64.0 °F 76% 30.01 in 10.0 mi North 5.8 mph - N/A   Clear
9:52 PM 70.0 °F 64.9 °F 84% 30.04 in 10.0 mi North 4.6 mph - N/A   Clear
10:52 PM 69.1 °F 64.9 °F 87% 30.05 in 10.0 mi North 3.5 mph - N/A   Partly Cloudy
11:52 PM 68.0 °F 64.9 °F 90% 30.06 in 10.0 mi North 3.5 mph - N/A   Partly Cloudy